• In Germany
  • List of Countries
  • For 7 days
  • Water Temperature
  • Satellite Maps
  • Weather Map
  • Weather Widgets
  • user-avatar
    Login

    Hourly Weather Hoeryŏng

    Today, 23 November, Thursday

    Time Temperature Precipitation Wind Pressure Humidity
    00:00 -2°C° 0 mm 4 mps 758 mmHg 42%
    01:00 -1°C° 0 mm 3 mps 758 mmHg 40%
    02:00 -2°C° 0 mm 3 mps 758 mmHg 37%
    03:00 -2°C° 0 mm 2 mps 758 mmHg 36%
    04:00 0°C° 0 mm 1 mps 758 mmHg 35%
    05:00 0°C° 0 mm 1 mps 758 mmHg 33%
    06:00 0°C° 0 mm 1 mps 758 mmHg 35%
    07:00 +1°C° 0 mm 1 mps 758 mmHg 36%
    08:00 +1°C° 0 mm 1 mps 758 mmHg 37%
    09:00 +1°C° 0 mm 2 mps 758 mmHg 40%
    10:00 +1°C° 0 mm 3 mps 758 mmHg 43%
    11:00 +1°C° 0 mm 4 mps 758 mmHg 46%
    12:00 +1°C° 0 mm 5 mps 758 mmHg 44%
    13:00 +1°C° 0 mm 6 mps 758 mmHg 42%
    14:00 +1°C° 0 mm 6 mps 757 mmHg 40%
    15:00 0°C° 0 mm 5 mps 758 mmHg 41%
    16:00 -1°C° 0 mm 5 mps 758 mmHg 42%
    17:00 -2°C° 0 mm 4 mps 758 mmHg 44%
    18:00 -1°C° 0 mm 3 mps 759 mmHg 44%
    19:00 -1°C° 0 mm 2 mps 759 mmHg 44%
    20:00 0°C° 0 mm 1 mps 759 mmHg 44%
    21:00 0°C° 0.1 mm 1 mps 759 mmHg 51%
    22:00 0°C° 0.1 mm 1 mps 759 mmHg 58%
    23:00 0°C° 0.1 mm 1 mps 759 mmHg 66%

    Tomorrow, 24 November, Friday

    Time Temperature Precipitation Wind Pressure Humidity
    00:00 0°C° 0.1 mm 1 mps 759 mmHg 69%
    01:00 0°C° 0.1 mm 1 mps 759 mmHg 72%
    02:00 -3°C° 0.1 mm 2 mps 759 mmHg 75%
    03:00 -3°C° 0 mm 2 mps 758 mmHg 76%
    04:00 -3°C° 0 mm 2 mps 758 mmHg 77%
    05:00 -3°C° 0 mm 2 mps 758 mmHg 78%
    06:00 -3°C° 0.4 mm 2 mps 757 mmHg 81%
    07:00 -2°C° 0.4 mm 2 mps 757 mmHg 84%
    08:00 -2°C° 0.4 mm 2 mps 757 mmHg 87%
    09:00 -2°C° 1.1 mm 3 mps 757 mmHg 87%
    10:00 -2°C° 1.1 mm 4 mps 757 mmHg 87%
    11:00 -2°C° 1.1 mm 4 mps 757 mmHg 86%
    12:00 -2°C° 0.1 mm 5 mps 758 mmHg 73%
    13:00 -3°C° 0.1 mm 6 mps 758 mmHg 61%
    14:00 -4°C° 0.1 mm 8 mps 759 mmHg 48%
    15:00 -4°C° 0 mm 6 mps 760 mmHg 52%
    16:00 -5°C° 0 mm 5 mps 761 mmHg 56%
    17:00 -5°C° 0 mm 4 mps 761 mmHg 60%
    18:00 -5°C° 0 mm 3 mps 762 mmHg 61%
    19:00 -6°C° 0 mm 3 mps 762 mmHg 62%
    20:00 -5°C° 0 mm 2 mps 763 mmHg 63%
    21:00 -5°C° 0 mm 2 mps 763 mmHg 64%
    22:00 -3°C° 0 mm 1 mps 763 mmHg 64%
    23:00 -3°C° 0 mm 1 mps 764 mmHg 64%

    Day after tomorrow, 25 November, Saturday

    Time Temperature Precipitation Wind Pressure Humidity
    00:00 -3°C° 0 mm 1 mps 764 mmHg 64%
    01:00 -3°C° 0 mm 1 mps 763 mmHg 64%
    02:00 -3°C° 0 mm 1 mps 763 mmHg 64%
    03:00 -5°C° 0 mm 2 mps 763 mmHg 65%
    04:00 -5°C° 0 mm 2 mps 762 mmHg 67%
    05:00 -5°C° 0 mm 2 mps 762 mmHg 69%
    06:00 -5°C° 0.1 mm 3 mps 762 mmHg 69%
    07:00 -4°C° 0.1 mm 3 mps 762 mmHg 69%
    08:00 -2°C° 0.1 mm 3 mps 762 mmHg 69%
    09:00 -2°C° 0.7 mm 4 mps 762 mmHg 74%
    10:00 -1°C° 0.7 mm 4 mps 761 mmHg 80%
    11:00 0°C° 0.7 mm 5 mps 760 mmHg 85%
    12:00 +1°C° 1.2 mm 5 mps 760 mmHg 85%
    13:00 +2°C° 1.2 mm 6 mps 759 mmHg 84%
    14:00 +3°C° 1.2 mm 6 mps 758 mmHg 84%
    15:00 +3°C° 0.4 mm 5 mps 758 mmHg 83%
    16:00 +3°C° 0.4 mm 5 mps 758 mmHg 81%
    17:00 +4°C° 0.4 mm 4 mps 758 mmHg 80%
    18:00 +3°C° 0.3 mm 4 mps 758 mmHg 81%
    19:00 +3°C° 0.3 mm 3 mps 758 mmHg 81%
    20:00 +3°C° 0.3 mm 3 mps 759 mmHg 82%
    21:00 +3°C° 0.3 mm 3 mps 758 mmHg 82%
    22:00 +3°C° 0.3 mm 3 mps 758 mmHg 83%
    23:00 +3°C° 0.3 mm 3 mps 758 mmHg 84%

    26 November, Sunday

    Time Temperature Precipitation Wind Pressure Humidity
    00:00 +3°C° 0.3 mm 4 mps 758 mmHg 84%
    01:00 +4°C° 0.3 mm 4 mps 757 mmHg 85%
    02:00 +4°C° 0.3 mm 4 mps 756 mmHg 85%
    03:00 +4°C° 0.2 mm 4 mps 756 mmHg 82%
    04:00 +5°C° 0.2 mm 4 mps 756 mmHg 78%
    05:00 +5°C° 0.2 mm 5 mps 755 mmHg 74%
    06:00 +3°C° 0 mm 5 mps 756 mmHg 74%
    07:00 +3°C° 0 mm 6 mps 757 mmHg 73%
    08:00 +2°C° 0 mm 7 mps 757 mmHg 73%
    09:00 +2°C° 0 mm 7 mps 758 mmHg 66%
    10:00 0°C° 0 mm 7 mps 759 mmHg 59%
    11:00 0°C° 0 mm 7 mps 760 mmHg 52%
    12:00 -1°C° 0 mm 7 mps 760 mmHg 49%
    13:00 -1°C° 0 mm 7 mps 761 mmHg 47%
    14:00 -2°C° 0 mm 7 mps 761 mmHg 44%
    15:00 -3°C° 0 mm 6 mps 762 mmHg 48%
    16:00 -4°C° 0 mm 5 mps 763 mmHg 52%
    17:00 -4°C° 0 mm 4 mps 764 mmHg 56%
    18:00 -5°C° 0 mm 4 mps 764 mmHg 58%
    19:00 -5°C° 0 mm 3 mps 765 mmHg 59%
    20:00 -6°C° 0 mm 3 mps 765 mmHg 61%
    21:00 -5°C° 0 mm 2 mps 765 mmHg 60%
    22:00 -5°C° 0 mm 2 mps 766 mmHg 60%
    23:00 -3°C° 0 mm 1 mps 766 mmHg 60%

    27 November, Monday

    Time Temperature Precipitation Wind Pressure Humidity
    00:00 -3°C° 0 mm 1 mps 766 mmHg 60%
    01:00 -3°C° 0 mm 1 mps 766 mmHg 60%
    02:00 -3°C° 0 mm 1 mps 766 mmHg 61%
    03:00 -3°C° 0 mm 1 mps 766 mmHg 61%
    04:00 -3°C° 0 mm 1 mps 766 mmHg 62%
    05:00 -3°C° 0 mm 1 mps 766 mmHg 62%
    06:00 -3°C° 0 mm 1 mps 766 mmHg 60%
    07:00 -2°C° 0 mm 1 mps 766 mmHg 57%
    08:00 -2°C° 0 mm 1 mps 766 mmHg 55%
    09:00 -1°C° 0 mm 0 mps 766 mmHg 50%
    10:00 0°C° 0 mm 0 mps 766 mmHg 45%
    11:00 +1°C° 0 mm 0 mps 765 mmHg 40%
    12:00 +2°C° 0 mm 0 mps 765 mmHg 38%
    13:00 +2°C° 0 mm 0 mps 764 mmHg 36%
    14:00 +3°C° 0 mm 0 mps 764 mmHg 35%
    15:00 +1°C° 0 mm 0 mps 764 mmHg 39%
    16:00 0°C° 0 mm 0 mps 764 mmHg 42%
    17:00 -1°C° 0 mm 0 mps 764 mmHg 46%
    18:00 -1°C° 0 mm 0 mps 764 mmHg 47%
    19:00 -1°C° 0 mm 0 mps 764 mmHg 48%
    20:00 0°C° 0 mm 1 mps 764 mmHg 49%
    21:00 0°C° 0 mm 1 mps 763 mmHg 49%
    22:00 0°C° 0 mm 1 mps 763 mmHg 48%
    23:00 0°C° 0 mm 1 mps 763 mmHg 48%

    28 November, Tuesday

    Time Temperature Precipitation Wind Pressure Humidity
    00:00 0°C° 0 mm 1 mps 763 mmHg 48%
    01:00 0°C° 0 mm 1 mps 763 mmHg 47%
    02:00 0°C° 0 mm 1 mps 763 mmHg 47%
    03:00 0°C° 0 mm 1 mps 762 mmHg 47%
    04:00 0°C° 0 mm 1 mps 762 mmHg 48%
    05:00 0°C° 0 mm 1 mps 762 mmHg 48%
    06:00 0°C° 0 mm 1 mps 763 mmHg 47%
    07:00 +1°C° 0 mm 1 mps 763 mmHg 47%
    08:00 +2°C° 0 mm 1 mps 763 mmHg 46%
    09:00 +3°C° 0 mm 1 mps 763 mmHg 45%
    10:00 +4°C° 0 mm 1 mps 762 mmHg 44%
    11:00 +6°C° 0 mm 1 mps 762 mmHg 44%
    12:00 +5°C° 0 mm 0 mps 761 mmHg 46%
    13:00 +5°C° 0 mm 0 mps 761 mmHg 49%
    14:00 +5°C° 0 mm 0 mps 761 mmHg 52%
    15:00 +5°C° 0 mm 0 mps 761 mmHg 54%
    16:00 +4°C° 0 mm 0 mps 761 mmHg 56%
    17:00 +3°C° 0 mm 0 mps 761 mmHg 59%
    18:00 +3°C° 0 mm 0 mps 761 mmHg 59%
    19:00 +3°C° 0 mm 0 mps 761 mmHg 59%
    20:00 +4°C° 0 mm 1 mps 761 mmHg 59%
    21:00 +4°C° 0 mm 1 mps 760 mmHg 59%
    22:00 +4°C° 0 mm 1 mps 760 mmHg 58%
    23:00 +3°C° 0 mm 1 mps 760 mmHg 58%
    Show more